Regional Weather Roundup
Issued by NWS Little Rock, AR

Home | Current Version | Previous Version | Graphics & Text | Print | Product List | Glossary On
Versions: 1 2 3 4 5 6 7 8 9 10 11 12 13 14 15 16 17 18 19 20 21 22 23 24 25 26 27 28 29 30 31 32 33 34 35 36 37 38 39 40 41 42 43 44 45 46 47 48 49 50
000
ASUS44 KLZK 050405
RWRLZK

WEATHER ROUNDUP FOR ARKANSAS
NATIONAL WEATHER SERVICE LITTLE ROCK AR
1000 PM CST WED MAR 04 2015

NOTE: "FAIR" INDICATES FEW OR NO CLOUDS BELOW 12,000 FEET WITH NO
SIGNIFICANT WEATHER AND/OR OBSTRUCTIONS TO VISIBILITY.

ARZ001-003-010-029-050500-
NORTHWEST ARKANSAS

CITY           SKY/WX    TMP DP  RH WIND       PRES   REMARKS
FAYETTEVILLE   LGT SNOW  20  17  88 N7G21     30.33R FOG     WCI  11
FORT SMITH     FLURRIES  26  19  74 N17       30.33F WCI  13
HARRISON       FLURRIES  19  15  84 N10       30.32R WCI   7
BENTONVILLE    CLOUDY    21  14  73 NE10      30.34S WCI  10
ROGERS         FLURRIES  19  16  88 NE10      30.34F WCI   7
SILOAM SPGS    CLOUDY    21  12  68 NE10      30.35S WCI  10
HIGHFILL       LGT SNOW  21  17  84 NE12      30.33S FOG     WCI   9
$$

ARZ004-005-016-050500-
NORTH CENTRAL ARKANSAS

CITY           SKY/WX    TMP DP  RH WIND       PRES   REMARKS
BATESVILLE     CLOUDY    21  18  86 N7        30.32R WCI  13
FLIPPIN        CLOUDY    21  12  68 CALM      30.34R
MTN HOME       CLOUDY    20  15  81 VRB6      30.33R WCI  12
$$

ARZ040-041-050500-
WEST CENTRAL ARKANSAS

CITY           SKY/WX    TMP DP  RH WIND       PRES   REMARKS
MENA           CLOUDY    30  28  93 CALM      30.23R
MOUNT IDA      MIX PCPN  28  24  85 VRB7      30.22R WCI  21
$$

ARZ009-017-025-026-028-050500-
NORTHEAST ARKANSAS

CITY           SKY/WX    TMP DP  RH WIND       PRES   REMARKS
CORNING        SNOW      21  19  93 N17G24    30.34R VSB 1/2 WCI   7
JONESBORO      SNOW      21  20  96 NE13G25   30.30R VSB 1/2 WCI   9
NEWPORT        LGT SNOW  22  21  96 N28G33    30.32R VSB 3/4 WCI   5
WALNUT RIDGE   CLOUDY    21  16  79 N20       30.33R VSB 1/2 WCI   6
BLYTHEVILLE    LGT SNOW  22  20  92 N29       30.30R FOG     WCI   4
$$

ARZ022-023-033-042-044-050500-
CENTRAL ARKANSAS

CITY           SKY/WX    TMP DP  RH WIND       PRES   REMARKS
LITTLE ROCK    LGTSLEET  27  23  85 N21G26    30.28R FOG     WCI  13
N LITTLE ROCK  CLOUDY    25  24  98 N14G24      N/A  WCI  13
SEARCY         LGT SNOW  23  21  93 N14G23    30.31R VSB 3/4 WCI  11
HOT SPRINGS    MIX PCPN  29  24  82 NE10G24   30.22S WCI  20
RUSSELLVILLE   LGT SNOW  24  21  88 N9        30.31R FOG     WCI  14
CLINTON        LGT SNOW  23  18  80 CALM      30.34R
$$

ARZ036-050500-
EAST ARKANSAS

CITY           SKY/WX    TMP DP  RH WIND       PRES   REMARKS
$$

ARZ050-053-066-070-073-050500-
SOUTHWEST ARKANSAS

CITY           SKY/WX    TMP DP  RH WIND       PRES   REMARKS
ARKADELPHIA    MIX PCPN  31  31 100 NE16      30.22R FOG     WCI  20
CAMDEN         HVY RAIN  32  30  93 MISG      30.19R
TEXARKANA      HVY RAIN  33  33 100 N13G28    30.17R FOG     WCI  24
EL DORADO      LGT RAIN  34  32  92 N14G31    30.13R WCI  25
DE QUEEN       FRZ RAIN  33  28  81 NE13G23   30.21R WCI  24
$$

ARZ056-057-069-050500-
SOUTHEAST ARKANSAS

CITY           SKY/WX    TMP DP  RH WIND       PRES   REMARKS
PINE BLUFF     MIX PCPN  29  26  89 N23G33    30.20S FOG     WCI  15
STUTTGART      CLOUDY    27  23  86 N28G37    30.21F WCI  11
MONTICELLO     MIX PCPN  33  29  85 NE14G23   30.13R FOG     WCI  23

$$





USA.gov is the U.S. government's official web portal to all federal, state and local government web resources and services.